When you browse on this site, cookies collect data to enhance your experience and personalize the content and advertising you see.
Visit our Privacy Policy to learn more. By continuing to use the site, you agree to this use of cookies and data.
  • In Hungary
  • List of Countries
  • For 7 days
  • Water Temperature
  • Satellite Maps
  • Weather Map
  • News
  • Weather Widgets
  • user-avatar
    Login

    Hourly Weather New Delhi

    Today, 16 July, Tuesday

    Time Temperature Precipitation Wind Pressure Humidity
    00:00 +34°C° 1.3 mm 4 mps 728 mmHg 61%
    01:00 +34°C° 1.3 mm 4 mps 728 mmHg 63%
    02:00 +33°C° 1.3 mm 4 mps 728 mmHg 65%
    03:00 +33°C° 0.4 mm 3 mps 728 mmHg 65%
    04:00 +33°C° 0.4 mm 3 mps 728 mmHg 65%
    05:00 +30°C° 0 mm 4 mps 729 mmHg 69%
    06:00 +30°C° 2.6 mm 4 mps 729 mmHg 69%
    07:00 +30°C° 2.6 mm 3 mps 730 mmHg 70%
    08:00 +30°C° 2.6 mm 2 mps 730 mmHg 70%
    09:00 +32°C° 1.5 mm 2 mps 731 mmHg 65%
    10:00 +33°C° 1.5 mm 1 mps 731 mmHg 61%
    11:00 +35°C° 0 mm 1 mps 732 mmHg 53%
    12:00 +36°C° 1.4 mm 1 mps 731 mmHg 50%
    13:00 +37°C° 1.4 mm 1 mps 731 mmHg 46%
    14:00 +37°C° 1.4 mm 1 mps 731 mmHg 42%
    15:00 +37°C° 0.2 mm 1 mps 730 mmHg 43%
    16:00 +37°C° 0.2 mm 1 mps 730 mmHg 43%
    17:00 +37°C° 0.2 mm 1 mps 729 mmHg 43%
    18:00 +37°C° 0.6 mm 2 mps 729 mmHg 49%
    19:00 +35°C° 0.6 mm 2 mps 729 mmHg 55%
    20:00 +34°C° 0.6 mm 3 mps 729 mmHg 61%
    21:00 +32°C° 2.2 mm 2 mps 730 mmHg 64%
    22:00 +31°C° 2.2 mm 2 mps 730 mmHg 66%
    23:00 +31°C° 2.2 mm 1 mps 730 mmHg 69%

    Tomorrow, 17 July, Wednesday

    Time Temperature Precipitation Wind Pressure Humidity
    00:00 +31°C° 0.3 mm 1 mps 730 mmHg 67%
    01:00 +32°C° 0.3 mm 1 mps 730 mmHg 65%
    02:00 +32°C° 0.3 mm 2 mps 730 mmHg 63%
    03:00 +32°C° 2.2 mm 1 mps 730 mmHg 66%
    04:00 +31°C° 2.2 mm 1 mps 730 mmHg 70%
    05:00 +30°C° 2.2 mm 1 mps 730 mmHg 73%
    06:00 +31°C° 0.7 mm 1 mps 730 mmHg 70%
    07:00 +31°C° 0.7 mm 1 mps 731 mmHg 67%
    08:00 +32°C° 0.7 mm 1 mps 731 mmHg 65%
    09:00 +34°C° 0.1 mm 2 mps 731 mmHg 58%
    10:00 +36°C° 0.1 mm 2 mps 731 mmHg 52%
    11:00 +38°C° 0.1 mm 3 mps 732 mmHg 45%
    12:00 +38°C° 0 mm 3 mps 731 mmHg 45%
    13:00 +38°C° 0 mm 3 mps 731 mmHg 45%
    14:00 +38°C° 0 mm 3 mps 730 mmHg 45%
    15:00 +37°C° 0 mm 3 mps 730 mmHg 46%
    16:00 +37°C° 0 mm 3 mps 729 mmHg 47%
    17:00 +37°C° 0 mm 3 mps 729 mmHg 49%
    18:00 +36°C° 0 mm 3 mps 729 mmHg 50%
    19:00 +36°C° 0 mm 2 mps 730 mmHg 52%
    20:00 +35°C° 0 mm 2 mps 730 mmHg 54%
    21:00 +35°C° 0.1 mm 2 mps 730 mmHg 55%
    22:00 +34°C° 0.1 mm 2 mps 730 mmHg 56%
    23:00 +32°C° 0.1 mm 2 mps 730 mmHg 57%

    Day after tomorrow, 18 July, Thursday

    Time Temperature Precipitation Wind Pressure Humidity
    00:00 +32°C° 0 mm 1 mps 730 mmHg 58%
    01:00 +32°C° 0 mm 1 mps 730 mmHg 58%
    02:00 +30°C° 0 mm 0 mps 729 mmHg 58%
    03:00 +32°C° 0.1 mm 1 mps 730 mmHg 59%
    04:00 +32°C° 0.1 mm 1 mps 730 mmHg 59%
    05:00 +32°C° 0.1 mm 1 mps 730 mmHg 60%
    06:00 +32°C° 0.1 mm 1 mps 730 mmHg 59%
    07:00 +34°C° 0.1 mm 2 mps 730 mmHg 57%
    08:00 +35°C° 0.1 mm 2 mps 731 mmHg 56%
    09:00 +36°C° 0 mm 2 mps 731 mmHg 52%
    10:00 +37°C° 0 mm 2 mps 731 mmHg 49%
    11:00 +38°C° 0 mm 3 mps 731 mmHg 46%
    12:00 +38°C° 0 mm 2 mps 730 mmHg 44%
    13:00 +39°C° 0 mm 2 mps 730 mmHg 42%
    14:00 +39°C° 0 mm 2 mps 730 mmHg 39%
    15:00 +39°C° 0.7 mm 3 mps 729 mmHg 43%
    16:00 +38°C° 0.7 mm 3 mps 729 mmHg 46%
    17:00 +37°C° 0.7 mm 4 mps 728 mmHg 50%
    18:00 +36°C° 1.3 mm 4 mps 729 mmHg 54%
    19:00 +34°C° 1.3 mm 3 mps 729 mmHg 58%
    20:00 +32°C° 1.3 mm 2 mps 729 mmHg 62%
    21:00 +32°C° 0.4 mm 2 mps 729 mmHg 62%
    22:00 +32°C° 0.4 mm 2 mps 729 mmHg 62%
    23:00 +32°C° 0.4 mm 2 mps 729 mmHg 63%

    19 July, Friday

    Time Temperature Precipitation Wind Pressure Humidity
    00:00 +32°C° 0.3 mm 1 mps 729 mmHg 62%
    01:00 +32°C° 0.3 mm 1 mps 729 mmHg 62%
    02:00 +30°C° 0.3 mm 0 mps 729 mmHg 62%
    03:00 +30°C° 1 mm 0 mps 729 mmHg 63%
    04:00 +30°C° 1 mm 0 mps 729 mmHg 64%
    05:00 +29°C° 1 mm 0 mps 729 mmHg 65%
    06:00 +30°C° 0.5 mm 0 mps 730 mmHg 61%
    07:00 +33°C° 0.5 mm 1 mps 731 mmHg 57%
    08:00 +34°C° 0.5 mm 1 mps 731 mmHg 54%
    09:00 +36°C° 0 mm 2 mps 731 mmHg 50%
    10:00 +38°C° 0 mm 2 mps 731 mmHg 47%
    11:00 +39°C° 0 mm 3 mps 731 mmHg 43%
    12:00 +40°C° 0 mm 3 mps 731 mmHg 41%
    13:00 +40°C° 0 mm 3 mps 730 mmHg 39%
    14:00 +42°C° 0 mm 3 mps 730 mmHg 36%
    15:00 +42°C° 0 mm 3 mps 729 mmHg 36%
    16:00 +42°C° 0 mm 3 mps 729 mmHg 36%
    17:00 +41°C° 0 mm 2 mps 729 mmHg 36%
    18:00 +39°C° 0.2 mm 3 mps 729 mmHg 42%
    19:00 +38°C° 0.2 mm 3 mps 729 mmHg 47%
    20:00 +36°C° 0.2 mm 3 mps 729 mmHg 53%
    21:00 +36°C° 0.6 mm 3 mps 730 mmHg 54%
    22:00 +35°C° 0.6 mm 2 mps 730 mmHg 55%
    23:00 +34°C° 0.6 mm 1 mps 730 mmHg 56%

    20 July, Saturday

    Time Temperature Precipitation Wind Pressure Humidity
    00:00 +34°C° 0.2 mm 1 mps 730 mmHg 56%
    01:00 +34°C° 0.2 mm 1 mps 730 mmHg 57%
    02:00 +34°C° 0.2 mm 1 mps 729 mmHg 57%
    03:00 +33°C° 0.2 mm 1 mps 729 mmHg 58%
    04:00 +33°C° 0.2 mm 1 mps 730 mmHg 59%
    05:00 +33°C° 0.2 mm 1 mps 730 mmHg 61%
    06:00 +34°C° 0 mm 1 mps 730 mmHg 57%
    07:00 +35°C° 0 mm 1 mps 730 mmHg 54%
    08:00 +34°C° 0 mm 0 mps 731 mmHg 50%
    09:00 +37°C° 0 mm 1 mps 731 mmHg 46%
    10:00 +39°C° 0 mm 2 mps 731 mmHg 42%
    11:00 +41°C° 0 mm 2 mps 731 mmHg 38%
    12:00 +42°C° 0 mm 3 mps 731 mmHg 37%
    13:00 +43°C° 0 mm 4 mps 730 mmHg 35%
    14:00 +43°C° 0 mm 5 mps 730 mmHg 33%
    15:00 +43°C° 0 mm 4 mps 729 mmHg 32%
    16:00 +44°C° 0 mm 4 mps 729 mmHg 32%
    17:00 +44°C° 0 mm 4 mps 728 mmHg 32%
    18:00 +43°C° 0.2 mm 4 mps 728 mmHg 34%
    19:00 +42°C° 0.2 mm 4 mps 728 mmHg 37%
    20:00 +40°C° 0.2 mm 3 mps 728 mmHg 40%
    21:00 +39°C° 0 mm 3 mps 728 mmHg 42%
    22:00 +39°C° 0 mm 2 mps 728 mmHg 44%
    23:00 +37°C° 0 mm 1 mps 728 mmHg 46%

    21 July, Sunday

    Time Temperature Precipitation Wind Pressure Humidity
    00:00 +37°C° 0 mm 1 mps 728 mmHg 46%
    01:00 +37°C° 0 mm 1 mps 728 mmHg 46%
    02:00 +34°C° 0 mm 0 mps 728 mmHg 46%
    03:00 +34°C° 0 mm 0 mps 728 mmHg 47%
    04:00 +36°C° 0 mm 1 mps 728 mmHg 47%
    05:00 +36°C° 0 mm 1 mps 728 mmHg 47%
    06:00 +38°C° 0 mm 2 mps 728 mmHg 44%
    07:00 +39°C° 0 mm 3 mps 728 mmHg 41%
    08:00 +41°C° 0 mm 4 mps 729 mmHg 37%
    09:00 +42°C° 0 mm 4 mps 729 mmHg 34%
    10:00 +43°C° 0 mm 5 mps 729 mmHg 31%
    11:00 +45°C° 0 mm 6 mps 729 mmHg 28%
    12:00 +46°C° 0 mm 5 mps 728 mmHg 26%
    13:00 +47°C° 0 mm 5 mps 728 mmHg 25%
    14:00 +47°C° 0 mm 5 mps 727 mmHg 24%
    15:00 +47°C° 0 mm 5 mps 727 mmHg 24%
    16:00 +46°C° 0 mm 5 mps 726 mmHg 25%
    17:00 +46°C° 0 mm 5 mps 726 mmHg 26%
    18:00 +45°C° 0 mm 5 mps 726 mmHg 27%
    19:00 +44°C° 0 mm 4 mps 726 mmHg 28%
    20:00 +43°C° 0 mm 4 mps 726 mmHg 28%
    21:00 +43°C° 0 mm 4 mps 726 mmHg 29%
    22:00 +42°C° 0 mm 3 mps 727 mmHg 30%
    23:00 +42°C° 0 mm 3 mps 727 mmHg 31%
    Show more